Home > Weather > Tartu > Past weeks

Flag for Estonia Weather for the Past 2 Weeks in Tartu, Estonia

Now
36 °F

Chilly.


Feels Like: 33 °F
Forecast: 33 / 57 °F
Wind: 3 mph from West

Location: Tartu/Ulenurme

Current Time: Apr 30, 2016 at 1:41:06 AM

Latest Report: Apr 30, 2016 at 12:50 AM


Visibility: N/A

Pressure: 30.30 "Hg

Humidity: 81%

Dew Point: 30 °F

Location of TartuLocation

Historic Weather in Tartu — Graph

°F

Tartu Temperature Yesterday

Maximum temperature yesterday: 55 °F (at 2:50 PM)
Minimum temperature yesterday: 34 °F (at 5:50 AM)
Average temperature yesterday: 46 °F

High & Low Weather Summary for the Past Weeks

 TemperatureHumidityPressure
High57 °F (Apr 17, 11:50 AM)93% (Apr 20, 5:50 AM)30.27 "Hg (Apr 20, 5:50 AM)
Low30 °F (Apr 15, 3:50 AM)27% (Apr 21, 4:50 PM)29.50 "Hg (Apr 24, 11:50 PM)
Average42 °F73%29.75 "Hg
* Reported Apr 14 11:50 PM — Apr 29 11:50 PM, Tartu, Weather by CustomWeather, © 2016

Note: Actual official high and low records may vary slightly from our data, if they occured in-between our weather recording intervals... More about our weather records

Advertising

Tartu Weather History for the Previous 24 Hours

Scroll right to see more
 ConditionsComfort  
Time TempWeatherWind HumidityBarometerVisibility
11:50 PM
Fri, Apr 29
37 °FChilly.No wind75%30.27 "HgN/A
10:50 PM41 °FPassing clouds.2 mph66%30.27 "HgN/A
9:50 PM46 °FCool.1 mph50%30.27 "HgN/A
8:50 PM48 °FCool.6 mph46%30.27 "HgN/A
7:50 PM52 °FCool.7 mph44%30.27 "HgN/A
6:50 PM54 °FSunny.10 mph44%30.27 "Hg10 mi
5:50 PM55 °FSunny.12 mph41%30.27 "Hg10 mi
4:50 PM54 °FPassing clouds.8 mph51%30.27 "HgN/A
3:50 PM55 °FPassing clouds.9 mph47%30.27 "HgN/A
2:50 PM55 °FPassing clouds.5 mph44%30.27 "HgN/A
1:50 PM54 °FPassing clouds.7 mph38%30.27 "HgN/A
12:50 PM54 °FPassing clouds.5 mph47%30.27 "HgN/A
11:50 AM52 °FPassing clouds.5 mph50%30.27 "HgN/A
10:50 AM50 °FPassing clouds.3 mph62%30.27 "HgN/A
9:50 AM48 °FSunny.3 mph71%30.24 "Hg10 mi
8:50 AM43 °FPassing clouds.5 mph81%30.24 "HgN/A
7:50 AM37 °FChilly.3 mph87%30.24 "HgN/A
6:50 AM36 °FFog.2 mph93%30.21 "HgN/A
5:50 AM34 °FChilly.2 mph87%30.18 "Hg0 mi
3:50 AM36 °FChilly.1 mph87%30.15 "Hg6 mi
2:50 AM37 °FChilly.2 mph87%30.12 "HgN/A
1:50 AM39 °FPassing clouds.8 mph81%30.12 "HgN/A
Weather by CustomWeather, © 2016

See weather overviewHow to use our weather pages